Location: Helds Island Access
(38.5526°N, 91.5997°W)
Time: 08:44:39
(UTC-05:00)

Daily predictions for brighter satellites

Satellite Brightness Start Highest point End
(mag) Time Altitude Azimuth Time Altitude Azimuth Time Altitude Azimuth
Meteor 1-11 Rocket 4.1 20:07:28 10° SSE 20:13:00 47° E 20:18:27 10° NNE
Okean 2 Rocket 3.8 20:13:07 10° SSW 20:17:34 63° W 20:22:04 10° N
Delta 2 Rocket 3.7 20:14:28 10° WSW 20:18:02 42° SSE 20:22:03 10° E
SJ-6B 3.1 20:15:10 10° S 20:19:14 78° W 20:23:22 10° NNW
Cosmos 2360 Rocket 2.9 20:17:44 10° SSE 20:22:38 32° ESE 20:27:33 10° NE
SeaSat 1 3.4 20:19:26 10° NE 20:23:30 25° ESE 20:27:33 10° SSE
Cosmos 1980 Rocket 4.3 20:18:51 10° WSW 20:23:50 32° WNW 20:28:50 10° N
Cosmos 1420 Rocket 4.3 20:20:14 10° SSW 20:25:24 76° WNW 20:30:37 10° NNE
HJ-1C 4.0 20:24:57 10° S 20:28:19 61° W 20:31:42 10° NNW
Cosmos 1850 Rocket 4.1 20:23:35 10° N 20:28:52 60° ENE 20:34:03 10° SSE
Cosmos 1655 Rocket 4.2 20:25:02 10° S 20:31:19 81° W 20:37:41 10° N
COSMOS 2428 4.1 20:28:26 10° SE 20:31:47 16° E 20:35:09 10° ENE
Resurs 1-3 3.6 20:33:18 10° SSE 20:37:39 67° ENE 20:42:01 10° N
Meteor 1-19 Rocket 4.3 20:32:45 10° N 20:38:38 85° E 20:44:24 10° S
NOSS 2-3 (C) 4.3 20:37:10 10° SW 20:41:47 68° NW 20:47:08 10° NNE
Cosmos 614 Rocket 4.4 20:37:15 10° NNW 20:42:19 64° WSW 20:47:25 10° S
Meteor 1-5 Rocket 4.3 20:39:35 10° SSE 20:44:42 49° E 20:49:47 10° NNE
Cosmos 1140 Rocket 4.4 20:40:50 10° NNW 20:45:53 50° WSW 20:50:55 10° S
Cosmos 1025 Rocket 4.0 20:44:40 10° NNE 20:48:21 28° ENE 20:50:37 18° ESE
Cosmos 1607 4.1 20:42:18 10° NNW 20:48:46 69° ENE 20:54:25 14° SE
Cosmos 1300 Rocket 3.4 20:44:40 10° S 20:48:57 77° E 20:53:16 10° N
Lacrosse 5 rocket 3.9 20:47:55 10° W 20:49:51 14° WSW 20:51:49 10° SSW
Cosmos 1536 2.7 20:45:52 10° S 20:49:55 77° E 20:53:59 10° N
USA 186 1.8 20:46:43 10° SSE 20:50:04 89° E 20:53:27 10° N
Okean 1 Rocket 3.1 20:47:51 10° S 20:52:04 53° E 20:56:21 10° NNE
CZ-2D R/B 3.8 20:48:45 10° S 20:52:33 59° W 20:56:22 10° NNW
Cosmos 1939 Rocket 3.1 20:51:36 15° SE 20:54:38 47° ENE 20:58:24 10° N
Spot 2 Rocket 3.6 20:51:02 10° SSE 20:56:08 84° WSW 21:01:15 10° NNW
USA 238 DEB 4.4 20:49:35 10° NNW 20:56:15 41° NE 21:01:04 18° ESE
USA 238 4.4 20:49:41 10° NNW 20:56:20 41° NE 21:01:09 18° ESE
Tiangong 1 1.0 20:54:09 10° WNW 20:56:53 58° SSW 20:58:00 30° SE
Meteor 2-4 Rocket 3.7 20:51:53 10° N 20:57:32 86° E 21:03:18 10° S
Helios 1A 3.6 21:01:08 23° ESE 21:03:12 37° ENE 21:07:08 10° N
ATLAS 3B R/B 2.9 20:59:25 10° NNW 21:05:57 51° NE 21:09:58 22° ESE
Cosmos 1818 4.1 21:01:29 10° S 21:06:21 35° ESE 21:11:14 10° NE
SL-8 R/B 4.5 21:01:46 10° NW 21:06:21 43° NNE 21:09:14 20° E
ERS-1 Rocket 4.0 21:06:57 22° ESE 21:08:49 28° ENE 21:13:04 10° N
YAOGAN 6 2.7 21:10:08 32° SE 21:11:27 51° ENE 21:14:52 10° N
CZ-4B DEB 4.4 21:11:51 25° SSE 21:13:46 80° ENE 21:17:18 10° N
ARGOS 4.3 21:12:31 21° E 21:14:06 25° ENE 21:18:22 10° NNE
ASTRO E2 4.4 21:11:57 10° SSW 21:14:09 17° S 21:14:09 17° S
Okean 1-7 Rocket 3.8 21:10:22 10° N 21:14:48 54° E 21:16:59 28° SE
USA 267 3.8 21:10:53 14° SSE 21:16:27 54° SW 21:22:52 10° NW
Cosmos 2266 Rocket 4.1 21:12:30 10° SSW 21:18:32 75° W 21:24:35 10° N
Resurs 01 Rocket 3.0 21:14:36 10° SSW 21:18:43 37° W 21:22:53 10° NNW
BREEZE-M DEB (TANK) 4.0 21:16:39 10° W 21:18:58 18° NNW 21:20:35 10° NNE
Abrixas 2.0 21:17:22 10° SW 21:19:46 74° SW 21:19:46 74° SW
Meteor 1-29 3.7 21:18:16 10° NNE 21:20:47 33° ENE 21:20:47 33° ENE
BREEZE-M DEB (TANK) 3.9 21:20:37 10° W 21:23:41 47° NNW 21:32:27 10° ENE
Envisat 3.6 21:20:39 10° S 21:25:37 55° W 21:30:37 10° NNW
Cosmos 2263 Rocket 3.0 21:23:45 10° NNW 21:29:13 49° WSW 21:34:05 13° S
SPOT 5 4.0 21:31:51 25° ENE 21:32:00 25° ENE 21:35:44 10° NNE
Lacrosse 5 3.6 21:30:02 10° WSW 21:34:37 33° NW 21:39:14 10° NNE
Cosmos 1844 Rocket 3.3 21:30:05 10° N 21:35:24 39° ENE 21:36:49 34° E
Cosmos 2315 Rocket 3.9 21:29:15 10° N 21:35:33 87° E 21:39:59 21° S
Nadezhda 2 Rocket 4.4 21:29:38 10° S 21:35:47 87° E 21:42:04 10° N
Cosmos 2278 Rocket 3.9 21:33:28 10° NNE 21:37:07 17° NE 21:38:10 16° ENE
MetOp-B 4.4 21:37:45 39° ESE 21:39:06 48° ENE 21:44:13 10° N
Atlas Centaur 2 4.0 21:35:14 10° W 21:42:08 29° SSW 21:45:00 23° S
Helios 1B rocket 2.4 21:38:08 10° N 21:42:15 82° WNW 21:44:31 26° SSW
Cosmos 1515 3.5 21:38:46 10° N 21:42:36 89° ENE 21:43:01 70° S
Spot 1 4.4 21:40:52 36° SSE 21:43:03 87° ENE 21:48:06 10° NNW
Cosmos 1892 Rocket 3.7 21:41:35 10° N 21:45:55 53° E 21:45:55 53° E
H-2A R/B 2.9 21:46:54 30° ENE 21:46:54 30° ENE 21:51:11 10° N
Cosmos 2237 4.3 21:41:19 10° SSW 21:46:59 78° WNW 21:52:43 10° NNE
Cosmos 1302 Rocket 3.9 21:42:00 10° SSW 21:47:17 86° ESE 21:52:35 10° NNE
ATLAS 2AS CENTAUR R/B 4.1 21:41:01 10° WSW 21:48:25 47° NW 21:56:12 10° NNE
Cosmos 2219 Rocket 2.4 21:50:03 45° E 21:50:03 45° E 21:55:15 10° NE
Cosmos 1745 Rocket 4.2 21:50:53 43° ESE 21:51:38 45° E 21:57:27 10° NNE
Cosmos 1500 3.4 21:54:32 57° SW 21:55:07 68° W 21:58:59 10° N
Cosmos 1486 Rocket 3.9 21:50:01 10° NNW 21:55:16 72° ENE 21:56:04 60° SE
SAR-Lupe-4 4.0 21:57:26 58° N 21:57:26 58° N 22:00:24 10° NNW
Cosmos 1544 Rocket 3.6 21:57:19 66° ENE 21:57:19 66° ENE 22:01:27 10° NNE
NOSS 3-4 (A) 3.5 21:53:00 10° SSW 21:59:04 55° ESE 22:05:18 10° NE
NOSS 3-4 (C) 3.5 21:57:10 39° S 21:59:10 54° ESE 22:05:24 10° NE
Delta 2 Rocket 3.8 21:56:17 10° W 21:59:34 50° SW 21:59:34 50° SW
Cosmos 405 3.6 22:01:07 54° NNW 22:01:07 54° NNW 22:04:09 10° N
Abrixas rocket 4.0 21:57:51 10° NW 22:00:06 28° N 22:00:06 28° N
SeaSat 1 3.8 21:56:30 10° N 22:01:04 39° WNW 22:05:38 10° SW
Terra 3.7 22:04:46 18° NE 22:04:46 18° NE 22:06:58 10° NNE
Cosmos 2360 Rocket 3.8 22:01:28 10° SW 22:06:32 34° WNW 22:11:37 10° N
Cosmos 1975 3.2 22:09:21 62° NW 22:09:21 62° NW 22:12:57 10° N
Cosmos 1455 Rocket 3.3 22:09:49 62° NNE 22:09:49 62° NNE 22:13:36 10° N
COSMOS 2428 3.0 22:09:44 10° SSW 22:15:25 65° WNW 22:21:08 10° NNE
Cosmos 1844 3.6 22:14:57 10° NNW 22:20:38 71° ENE 22:20:44 71° ENE
MetOp-A 4.4 22:24:20 54° SW 22:25:07 61° WSW 22:30:26 10° NNW
Cosmos 2333 Rocket 2.3 22:29:06 62° NE 22:29:06 62° NE 22:33:49 10° NNE
Cosmos 724 4.2 22:24:22 10° NNW 22:30:09 77° NE 22:30:09 77° NE
BREEZE M DEB (TANK) 3.6 22:26:51 10° WSW 22:32:14 40° NW 22:32:14 40° NW
Cosmos 1354 Rocket 4.2 22:29:26 10° NNW 22:34:09 69° N 22:34:09 69° N
Cosmos 2237 Rocket 3.4 22:42:12 32° NE 22:42:12 32° NE 22:45:09 10° NNE
Nadezhda 1 Rocket 3.9 22:36:11 10° N 22:42:33 85° W 22:42:45 83° SW
NOSS 3-2 (A) 3.9 22:36:20 10° NW 22:43:59 84° WSW 22:45:10 68° SSE
USA 238 DEB 4.5 22:40:36 10° NW 22:47:12 42° WSW 22:48:31 39° SW
USA 238 4.5 22:40:42 10° NW 22:47:19 43° WSW 22:48:36 39° SW
ERS-1 Rocket 4.3 22:46:58 30° WSW 22:47:28 31° W 22:51:55 10° NW
SPOT 1/Viking Rocket 4.0 22:49:27 60° NW 22:49:27 60° NW 22:53:48 10° NNW
Nimbus 7 Rocket 4.4 22:45:25 10° NNE 22:50:48 74° NNW 22:50:48 74° NNW
ARGOS 4.1 22:54:02 40° W 22:54:05 40° W 22:59:07 10° NNW
H-2A R/B 4.5 22:57:37 17° NNE 22:57:37 17° NNE 22:58:51 10° N
ATLAS 3B R/B 3.9 22:50:44 10° NW 22:56:15 28° WSW 22:57:14 27° SW
Cosmos 1709 Rocket 4.4 23:00:37 54° NNE 23:00:37 54° NNE 23:05:26 10° N
COSMOS 2455 4.1 23:13:20 10° NNW 23:17:33 33° NNE 23:17:33 33° NNE
Cosmos 1844 Rocket 4.3 23:14:21 10° NW 23:18:29 27° W 23:18:29 27° W
Cosmos 2278 Rocket 3.1 23:16:07 10° NNW 23:20:01 45° NW 23:20:01 45° NW
NOSS 3-2 (C) 4.2 23:16:53 10° NW 23:24:12 62° WSW 23:24:12 62° WSW
H-2A R/B 3.8 23:27:33 25° WNW 23:27:33 25° WNW 23:30:32 10° NW
Cosmos 2219 Rocket 4.1 23:31:38 19° W 23:34:00 25° WNW 23:38:38 10° N
Terra 4.0 23:43:40 22° NW 23:43:40 22° NW 23:45:34 10° NNW
CENTAUR R/B 3.2 23:36:30 10° NNW 23:43:45 72° N 23:43:45 72° N
ATLAS CENTAUR R/B 4.3 23:37:06 10° NW 23:47:05 32° NNE 23:47:41 32° NNE
SL-16 R/B 4.1 23:53:30 24° NNE 23:53:30 24° NNE 23:55:39 10° NNE
